GFSSE_prec_precacc24_024.txt.gz
Total_Precipitation_Accumulation
0.58 0.51 1.01 0.93 0.57 0.54 0.37 0.11 0.10 0.10 0.04 0.01 0.00 0.00 0.00 0.00 0.00 0.00 0.01 0.06 0.09 0.09 0.04 0.02 0.02 0.03 0.09 0.11 0.07 0.04 0.03 0.04 0.04 0.00 0.01 0.01 0.04 0.05 0.04 0.07 0.18 0.03 0.03
0.30 0.24 0.71 0.72 0.57 0.33 0.16 0.08 0.10 0.10 0.05 0.00 0.00 0.00 0.00 0.00 0.00 0.00 0.00 0.02 0.04 0.12 0.07 0.01 0.00 0.02 0.06 0.07 0.07 0.09 0.05 0.11 0.20 0.07 0.20 0.24 0.24 0.20 0.06 0.12 0.16 0.03 0.06
0.06 0.07 0.32 0.55 0.55 0.28 0.09 0.08 0.05 0.04 0.03 0.00 0.00 0.01 0.00 0.01 0.00 0.01 0.03 0.02 0.02 0.02 0.03 0.01 0.01 0.02 0.02 0.04 0.06 0.10 0.13 0.14 0.17 0.11 0.10 0.20 0.09 0.15 0.06 0.06 0.05 0.17 0.14
0.00 0.02 0.07 0.62 0.37 0.16 0.05 0.05 0.03 0.03 0.00 0.00 0.00 0.00 0.00 0.02 0.03 0.00 0.00 0.01 0.01 0.01 0.02 0.07 0.06 0.04 0.07 0.09 0.12 0.14 0.19 0.17 0.16 0.10 0.15 0.04 0.05 0.06 0.06 0.06 0.07 0.15 0.19
0.01 0.01 0.08 0.23 0.19 0.10 0.04 0.03 0.02 0.02 0.00 0.00 0.00 0.00 0.01 0.02 0.00 0.00 0.01 0.04 0.05 0.01 0.02 0.00 0.02 0.07 0.10 0.11 0.26 0.31 0.38 0.36 0.24 0.20 0.05 0.10 0.11 0.02 0.05 0.10 0.06 0.06 0.10
0.01 0.02 0.06 0.06 0.04 0.01 0.01 0.01 0.02 0.03 0.00 0.00 0.00 0.00 0.00 0.00 0.00 0.02 0.07 0.08 0.07 0.02 0.00 0.00 0.00 0.01 0.10 0.15 0.25 0.39 0.50 0.45 0.49 0.29 0.12 0.06 0.24 0.04 0.02 0.09 0.13 0.06 0.05
0.01 0.00 0.01 0.07 0.04 0.02 0.02 0.01 0.02 0.02 0.00 0.00 0.00 0.00 0.00 0.00 0.01 0.05 0.06 0.05 0.06 0.02 0.05 0.02 0.01 0.02 0.06 0.19 0.21 0.24 0.32 0.73 1.71 1.64 0.82 0.27 0.08 0.08 0.05 0.15 0.06 0.03 0.05
0.01 0.00 0.00 0.04 0.03 0.06 0.05 0.00 0.01 0.00 0.00 0.00 0.00 0.00 0.00 0.00 0.00 0.00 0.01 0.01 0.02 0.01 0.06 0.01 0.01 0.04 0.08 0.11 0.16 0.16 0.12 0.35 0.81 1.01 0.93 0.35 0.12 0.13 0.13 0.06 0.07 0.04 0.05
0.00 0.00 0.00 0.00 0.00 0.06 0.05 0.00 0.00 0.00 0.00 0.00 0.00 0.00 0.00 0.00 0.01 0.00 0.00 0.00 0.01 0.03 0.06 0.01 0.02 0.03 0.06 0.12 0.18 0.17 0.09 0.16 0.44 1.06 1.25 0.55 0.27 0.11 0.07 0.01 0.03 0.03 0.02
0.00 0.01 0.00 0.00 0.00 0.01 0.00 0.00 0.00 0.01 0.00 0.00 0.00 0.00 0.02 0.05 0.03 0.02 0.02 0.05 0.03 0.01 0.02 0.03 0.04 0.06 0.05 0.09 0.13 0.15 0.12 0.09 0.29 1.04 1.05 0.23 0.49 0.40 0.05 0.03 0.09 0.09 0.01
0.01 0.01 0.00 0.00 0.05 0.05 0.00 0.01 0.00 0.00 0.00 0.00 0.00 0.00 0.02 0.14 0.13 0.18 0.16 0.08 0.06 0.06 0.02 0.04 0.04 0.05 0.06 0.08 0.10 0.10 0.12 0.05 0.04 0.09 0.10 0.13 0.45 0.64 0.35 0.06 0.08 0.04 0.03
0.00 0.00 0.00 0.00 0.00 0.00 0.00 0.00 0.00 0.00 0.00 0.00 0.00 0.00 0.00 0.16 0.12 0.14 0.16 0.08 0.08 0.09 0.06 0.10 0.11 0.09 0.04 0.01 0.01 0.01 0.01 0.00 0.00 0.04 0.01 0.09 0.39 0.63 0.74 0.59 0.15 0.14 0.06
0.00 0.00 0.00 0.00 0.01 0.01 0.01 0.00 0.00 0.00 0.00 0.00 0.00 0.01 0.02 0.13 0.24 0.30 0.30 0.69 0.24 0.14 0.24 0.09 0.06 0.02 0.00 0.00 0.00 0.00 0.00 0.00 0.01 0.01 0.02 0.05 0.13 0.36 0.62 0.75 0.61 0.29 0.08
0.00 0.00 0.00 0.00 0.00 0.02 0.01 0.00 0.00 0.00 0.00 0.00 0.00 0.00 0.02 0.05 0.10 0.32 0.46 0.32 0.17 0.21 0.09 0.09 0.05 0.06 0.04 0.00 0.00 0.00 0.00 0.00 0.00 0.00 0.02 0.05 0.06 0.13 0.25 0.62 0.77 0.65 0.10
0.00 0.00 0.00 0.00 0.00 0.01 0.01 0.00 0.00 0.00 0.00 0.00 0.00 0.00 0.01 0.02 0.13 0.27 0.17 0.10 0.06 0.08 0.06 0.08 0.10 0.09 0.02 0.00 0.00 0.00 0.00 0.00 0.00 0.00 0.00 0.03 0.03 0.07 0.13 0.40 0.34 0.43 0.20
0.00 0.00 0.00 0.00 0.00 0.01 0.01 0.01 0.00 0.00 0.00 0.00 0.00 0.00 0.00 0.02 0.08 0.08 0.10 0.03 0.04 0.07 0.07 0.09 0.09 0.03 0.00 0.00 0.00 0.00 0.00 0.00 0.00 0.00 0.00 0.02 0.03 0.04 0.10 0.42 0.44 0.30 0.48
0.00 0.00 0.00 0.00 0.00 0.00 0.02 0.02 0.00 0.00 0.00 0.00 0.00 0.00 0.00 0.02 0.04 0.03 0.09 0.04 0.11 0.19 0.18 0.11 0.08 0.03 0.00 0.00 0.00 0.00 0.00 0.00 0.00 0.00 0.00 0.00 0.01 0.04 0.07 0.21 0.50 0.36 0.25
0.00 0.00 0.00 0.00 0.00 0.00 0.02 0.02 0.00 0.00 0.00 0.00 0.00 0.00 0.00 0.00 0.01 0.03 0.17 0.14 0.14 0.13 0.16 0.13 0.12 0.07 0.00 0.00 0.00 0.00 0.00 0.00 0.00 0.00 0.00 0.00 0.00 0.01 0.03 0.09 0.21 0.41 0.30
0.00 0.00 0.00 0.00 0.00 0.00 0.00 0.01 0.00 0.01 0.03 0.01 0.01 0.00 0.03 0.07 0.11 0.24 0.19 0.16 0.10 0.06 0.12 0.10 0.08 0.03 0.00 0.00 0.00 0.00 0.00 0.00 0.00 0.00 0.00 0.00 0.00 0.00 0.00 0.02 0.06 0.10 0.14
0.00 0.00 0.00 0.00 0.00 0.00 0.07 0.11 0.07 0.04 0.00 0.00 0.00 0.03 0.07 0.04 0.12 0.13 0.09 0.21 0.07 0.05 0.08 0.13 0.07 0.00 0.00 0.00 0.00 0.00 0.00 0.00 0.00 0.00 0.00 0.00 0.00 0.00 0.00 0.01 0.02 0.04 0.10
0.00 0.00 0.00 0.00 0.00 0.01 0.06 0.03 0.03 0.01 0.00 0.00 0.00 0.01 0.02 0.02 0.11 0.09 0.06 0.21 0.09 0.08 0.10 0.09 0.04 0.00 0.00 0.00 0.00 0.00 0.00 0.00 0.00 0.00 0.00 0.00 0.00 0.00 0.00 0.00 0.01 0.05 0.15
0.00 0.00 0.00 0.00 0.00 0.00 0.01 0.01 0.01 0.01 0.00 0.00 0.00 0.01 0.01 0.02 0.04 0.03 0.12 0.15 0.05 0.06 0.07 0.06 0.05 0.00 0.00 0.00 0.00 0.00 0.01 0.02 0.00 0.00 0.00 0.00 0.00 0.00 0.00 0.00 0.00 0.00 0.03
0.00 0.00 0.00 0.00 0.00 0.01 0.02 0.02 0.07 0.08 0.03 0.01 0.00 0.03 0.01 0.02 0.02 0.04 0.10 0.09 0.11 0.03 0.06 0.04 0.03 0.01 0.00 0.00 0.00 0.00 0.01 0.03 0.01 0.00 0.00 0.00 0.00 0.00 0.00 0.00 0.00 0.00 0.00
0.00 0.00 0.00 0.00 0.00 0.01 0.03 0.01 0.05 0.02 0.01 0.00 0.00 0.00 0.01 0.01 0.01 0.01 0.02 0.06 0.03 0.01 0.04 0.04 0.01 0.00 0.00 0.00 0.00 0.00 0.00 0.00 0.00 0.01 0.00 0.00 0.00 0.00 0.00 0.00 0.00 0.00 0.00
0.00 0.00 0.00 0.00 0.00 0.01 0.02 0.01 0.04 0.01 0.00 0.00 0.00 0.00 0.01 0.03 0.00 0.00 0.02 0.07 0.01 0.01 0.00 0.00 0.00 0.00 0.00 0.00 0.00 0.00 0.00 0.00 0.00 0.00 0.00 0.00 0.00 0.00 0.00 0.00 0.00 0.00 0.00
0.00 0.00 0.00 0.00 0.00 0.00 0.01 0.01 0.04 0.03 0.00 0.00 0.00 0.00 0.00 0.00 0.00 0.00 0.01 0.02 0.02 0.00 0.00 0.00 0.00 0.00 0.00 0.00 0.00 0.00 0.00 0.00 0.00 0.00 0.00 0.00 0.00 0.00 0.00 0.00 0.00 0.00 0.00

GFSSE_prec_precacc24_027.txt.gz
Total_Precipitation_Accumulation
0.45 0.46 0.88 0.79 0.48 0.49 0.35 0.09 0.07 0.07 0.04 0.01 0.00 0.00 0.00 0.00 0.00 0.00 0.02 0.07 0.10 0.12 0.04 0.02 0.02 0.03 0.09 0.11 0.07 0.04 0.03 0.04 0.04 0.00 0.01 0.01 0.04 0.06 0.04 0.06 0.10 0.03 0.03
0.53 0.22 0.63 0.62 0.49 0.26 0.10 0.04 0.04 0.04 0.02 0.00 0.00 0.00 0.00 0.00 0.01 0.00 0.01 0.05 0.05 0.12 0.07 0.01 0.00 0.02 0.06 0.07 0.08 0.09 0.05 0.10 0.17 0.05 0.23 0.24 0.24 0.20 0.03 0.05 0.11 0.02 0.05
0.23 0.07 0.31 0.50 0.42 0.13 0.05 0.03 0.02 0.01 0.01 0.01 0.00 0.01 0.01 0.03 0.02 0.06 0.07 0.05 0.03 0.02 0.03 0.03 0.01 0.02 0.02 0.05 0.13 0.14 0.12 0.11 0.14 0.09 0.16 0.18 0.09 0.13 0.03 0.09 0.07 0.09 0.15
0.01 0.02 0.07 0.61 0.30 0.06 0.02 0.01 0.00 0.01 0.00 0.00 0.00 0.00 0.02 0.04 0.05 0.01 0.01 0.02 0.01 0.01 0.02 0.07 0.06 0.04 0.07 0.09 0.12 0.14 0.19 0.16 0.13 0.10 0.19 0.05 0.05 0.06 0.03 0.03 0.04 0.07 0.14
0.01 0.00 0.08 0.20 0.13 0.04 0.02 0.01 0.00 0.01 0.00 0.00 0.00 0.01 0.03 0.02 0.03 0.02 0.02 0.04 0.05 0.02 0.02 0.00 0.02 0.07 0.10 0.11 0.23 0.29 0.38 0.35 0.24 0.15 0.09 0.09 0.06 0.03 0.07 0.14 0.08 0.05 0.04
0.02 0.02 0.06 0.06 0.01 0.01 0.01 0.01 0.02 0.03 0.00 0.00 0.00 0.02 0.02 0.01 0.01 0.02 0.07 0.08 0.07 0.02 0.00 0.00 0.00 0.01 0.10 0.15 0.22 0.38 0.50 0.45 0.46 0.19 0.11 0.06 0.23 0.04 0.05 0.13 0.12 0.06 0.03
0.02 0.00 0.01 0.08 0.04 0.02 0.02 0.01 0.02 0.02 0.00 0.00 0.00 0.00 0.00 0.01 0.02 0.06 0.06 0.05 0.06 0.02 0.02 0.00 0.00 0.02 0.06 0.19 0.21 0.24 0.32 0.73 1.62 1.61 0.78 0.26 0.08 0.08 0.05 0.16 0.07 0.03 0.08
0.01 0.00 0.00 0.03 0.02 0.04 0.05 0.00 0.01 0.00 0.00 0.00 0.00 0.00 0.00 0.00 0.01 0.02 0.01 0.01 0.02 0.00 0.00 0.00 0.01 0.04 0.08 0.11 0.16 0.16 0.12 0.37 0.79 0.99 0.91 0.36 0.07 0.14 0.14 0.07 0.07 0.04 0.06
0.01 0.00 0.00 0.00 0.00 0.04 0.05 0.00 0.00 0.00 0.00 0.00 0.00 0.00 0.00 0.00 0.01 0.00 0.00 0.00 0.00 0.00 0.01 0.01 0.02 0.03 0.06 0.12 0.18 0.17 0.09 0.27 0.55 1.06 1.24 0.49 0.25 0.15 0.08 0.01 0.03 0.03 0.02
0.00 0.01 0.00 0.00 0.00 0.00 0.00 0.00 0.00 0.00 0.00 0.00 0.00 0.00 0.02 0.05 0.03 0.02 0.01 0.01 0.03 0.00 0.02 0.03 0.04 0.06 0.05 0.09 0.13 0.15 0.12 0.10 0.30 1.05 1.02 0.20 0.42 0.36 0.06 0.04 0.10 0.09 0.01
0.00 0.01 0.00 0.00 0.00 0.02 0.00 0.00 0.00 0.00 0.00 0.00 0.00 0.00 0.03 0.18 0.16 0.24 0.16 0.07 0.06 0.06 0.02 0.04 0.04 0.05 0.06 0.08 0.10 0.10 0.12 0.05 0.04 0.09 0.09 0.13 0.44 0.54 0.31 0.08 0.08 0.04 0.03
0.00 0.00 0.00 0.00 0.00 0.00 0.00 0.00 0.00 0.00 0.00 0.00 0.00 0.00 0.12 0.16 0.14 0.18 0.16 0.08 0.08 0.09 0.06 0.10 0.11 0.09 0.06 0.03 0.01 0.01 0.01 0.00 0.00 0.04 0.01 0.09 0.39 0.61 0.55 0.45 0.15 0.11 0.06
0.00 0.00 0.00 0.00 0.00 0.01 0.00 0.00 0.00 0.00 0.00 0.00 0.00 0.01 0.04 0.14 0.27 0.33 0.29 0.70 0.24 0.14 0.22 0.11 0.09 0.02 0.00 0.00 0.00 0.00 0.00 0.00 0.01 0.01 0.01 0.05 0.13 0.36 0.62 0.58 0.56 0.27 0.08
0.00 0.00 0.00 0.00 0.00 0.01 0.00 0.00 0.00 0.00 0.00 0.00 0.00 0.00 0.02 0.08 0.11 0.32 0.46 0.31 0.17 0.21 0.10 0.11 0.05 0.06 0.05 0.00 0.00 0.00 0.00 0.00 0.00 0.00 0.01 0.05 0.06 0.13 0.24 0.60 0.61 0.55 0.10
0.00 0.00 0.00 0.00 0.00 0.01 0.00 0.00 0.00 0.00 0.00 0.00 0.00 0.00 0.01 0.03 0.12 0.26 0.14 0.10 0.06 0.09 0.14 0.08 0.10 0.09 0.02 0.01 0.00 0.00 0.00 0.00 0.00 0.00 0.00 0.03 0.03 0.07 0.12 0.39 0.35 0.37 0.17
0.00 0.00 0.00 0.00 0.00 0.00 0.00 0.01 0.00 0.00 0.00 0.00 0.00 0.00 0.00 0.02 0.02 0.08 0.09 0.03 0.04 0.08 0.13 0.09 0.08 0.09 0.00 0.00 0.00 0.00 0.00 0.00 0.00 0.00 0.00 0.02 0.03 0.04 0.10 0.37 0.44 0.29 0.41
0.00 0.00 0.00 0.00 0.00 0.00 0.01 0.01 0.00 0.00 0.00 0.00 0.00 0.00 0.00 0.01 0.03 0.05 0.07 0.04 0.11 0.18 0.18 0.11 0.07 0.20 0.02 0.00 0.00 0.00 0.00 0.00 0.00 0.00 0.00 0.00 0.01 0.03 0.06 0.18 0.45 0.33 0.24
0.00 0.00 0.00 0.00 0.00 0.00 0.00 0.01 0.00 0.00 0.00 0.00 0.00 0.00 0.00 0.00 0.01 0.04 0.19 0.14 0.16 0.13 0.15 0.12 0.11 0.07 0.00 0.00 0.00 0.00 0.00 0.00 0.00 0.00 0.00 0.00 0.00 0.00 0.03 0.08 0.19 0.35 0.27
0.00 0.00 0.00 0.00 0.00 0.00 0.00 0.01 0.00 0.00 0.00 0.00 0.00 0.00 0.03 0.07 0.10 0.25 0.22 0.18 0.09 0.08 0.09 0.09 0.08 0.03 0.00 0.00 0.00 0.00 0.00 0.00 0.00 0.00 0.00 0.00 0.00 0.00 0.00 0.02 0.05 0.08 0.12
0.00 0.00 0.00 0.00 0.00 0.00 0.01 0.03 0.02 0.01 0.00 0.00 0.00 0.02 0.04 0.01 0.12 0.12 0.11 0.19 0.06 0.07 0.08 0.11 0.07 0.00 0.00 0.00 0.00 0.00 0.00 0.00 0.00 0.00 0.00 0.00 0.00 0.00 0.00 0.01 0.02 0.04 0.09
0.00 0.00 0.00 0.00 0.00 0.00 0.00 0.00 0.02 0.00 0.00 0.00 0.00 0.00 0.00 0.01 0.06 0.04 0.13 0.24 0.06 0.09 0.12 0.09 0.04 0.00 0.00 0.00 0.00 0.00 0.00 0.00 0.00 0.00 0.00 0.00 0.00 0.00 0.00 0.00 0.01 0.04 0.11
0.00 0.00 0.00 0.00 0.00 0.00 0.00 0.00 0.01 0.01 0.00 0.00 0.00 0.00 0.01 0.02 0.02 0.08 0.25 0.15 0.04 0.09 0.11 0.07 0.05 0.01 0.00 0.00 0.00 0.00 0.01 0.01 0.00 0.00 0.00 0.00 0.00 0.00 0.00 0.00 0.00 0.00 0.02
0.00 0.00 0.00 0.00 0.00 0.00 0.00 0.00 0.03 0.05 0.01 0.01 0.00 0.01 0.00 0.00 0.01 0.05 0.17 0.09 0.11 0.06 0.18 0.11 0.04 0.02 0.01 0.00 0.00 0.00 0.01 0.02 0.01 0.00 0.00 0.00 0.00 0.00 0.00 0.00 0.00 0.00 0.00
0.00 0.00 0.00 0.00 0.00 0.00 0.00 0.00 0.01 0.00 0.01 0.00 0.00 0.00 0.00 0.00 0.00 0.01 0.06 0.08 0.04 0.01 0.13 0.13 0.01 0.00 0.00 0.00 0.00 0.00 0.00 0.00 0.00 0.01 0.00 0.00 0.00 0.00 0.00 0.00 0.00 0.00 0.00
0.00 0.00 0.00 0.00 0.00 0.00 0.00 0.00 0.02 0.00 0.00 0.00 0.00 0.00 0.01 0.03 0.00 0.00 0.02 0.11 0.02 0.02 0.03 0.08 0.03 0.00 0.00 0.00 0.00 0.00 0.00 0.00 0.00 0.00 0.00 0.00 0.00 0.00 0.00 0.00 0.00 0.00 0.00
0.00 0.00 0.00 0.00 0.00 0.00 0.01 0.00 0.02 0.01 0.00 0.00 0.00 0.00 0.00 0.00 0.00 0.00 0.01 0.03 0.02 0.00 0.00 0.03 0.01 0.00 0.00 0.00 0.00 0.00 0.00 0.00 0.00 0.00 0.00 0.00 0.00 0.00 0.00 0.00 0.00 0.00 0.00

GFSSE_prec_precacc24_030.txt.gz
Total_Precipitation_Accumulation
0.36 0.46 0.83 0.75 0.45 0.40 0.24 0.07 0.06 0.06 0.04 0.01 0.00 0.00 0.00 0.00 0.00 0.01 0.03 0.07 0.10 0.13 0.06 0.02 0.02 0.03 0.09 0.11 0.07 0.04 0.03 0.04 0.04 0.00 0.00 0.01 0.04 0.06 0.04 0.03 0.10 0.04 0.04
0.50 0.22 0.62 0.60 0.47 0.22 0.07 0.03 0.03 0.03 0.01 0.00 0.00 0.01 0.01 0.01 0.01 0.01 0.01 0.05 0.06 0.13 0.07 0.01 0.00 0.02 0.06 0.07 0.08 0.09 0.05 0.10 0.17 0.06 0.15 0.20 0.24 0.20 0.05 0.05 0.22 0.03 0.06
0.23 0.07 0.30 0.48 0.42 0.12 0.04 0.03 0.01 0.00 0.00 0.00 0.00 0.04 0.02 0.04 0.02 0.06 0.07 0.05 0.03 0.03 0.04 0.03 0.01 0.02 0.02 0.05 0.13 0.14 0.12 0.11 0.15 0.15 0.20 0.14 0.09 0.13 0.04 0.16 0.12 0.07 0.20
0.01 0.02 0.06 0.57 0.30 0.04 0.02 0.01 0.00 0.00 0.00 0.00 0.01 0.04 0.04 0.05 0.05 0.01 0.01 0.02 0.01 0.01 0.02 0.07 0.06 0.04 0.07 0.09 0.12 0.14 0.19 0.16 0.14 0.15 0.17 0.03 0.04 0.06 0.05 0.09 0.09 0.14 0.12
0.01 0.00 0.08 0.19 0.12 0.01 0.02 0.00 0.00 0.00 0.00 0.00 0.01 0.01 0.03 0.02 0.03 0.02 0.02 0.04 0.05 0.02 0.02 0.00 0.02 0.07 0.10 0.11 0.23 0.29 0.38 0.36 0.25 0.22 0.13 0.09 0.04 0.03 0.08 0.14 0.09 0.05 0.07
0.01 0.01 0.05 0.06 0.01 0.01 0.01 0.00 0.00 0.00 0.00 0.00 0.00 0.02 0.02 0.01 0.01 0.02 0.07 0.08 0.07 0.02 0.00 0.00 0.00 0.01 0.10 0.15 0.22 0.38 0.50 0.48 0.52 0.25 0.12 0.06 0.22 0.04 0.05 0.14 0.14 0.05 0.03
0.01 0.00 0.01 0.10 0.04 0.01 0.00 0.00 0.00 0.00 0.00 0.00 0.00 0.00 0.00 0.01 0.02 0.06 0.06 0.05 0.06 0.02 0.02 0.00 0.00 0.02 0.06 0.19 0.21 0.24 0.32 0.73 1.54 1.52 0.66 0.13 0.07 0.08 0.05 0.16 0.07 0.03 0.10
0.01 0.00 0.00 0.03 0.02 0.03 0.04 0.00 0.00 0.00 0.00 0.00 0.00 0.00 0.00 0.00 0.01 0.02 0.01 0.01 0.02 0.00 0.00 0.00 0.01 0.04 0.08 0.11 0.16 0.16 0.12 0.36 0.75 0.99 0.86 0.34 0.06 0.14 0.14 0.07 0.07 0.04 0.06
0.01 0.00 0.00 0.00 0.00 0.03 0.04 0.00 0.00 0.00 0.00 0.00 0.00 0.00 0.00 0.00 0.01 0.00 0.00 0.00 0.00 0.00 0.01 0.01 0.02 0.03 0.06 0.12 0.18 0.17 0.09 0.31 0.49 0.79 0.76 0.37 0.20 0.15 0.08 0.02 0.03 0.03 0.02
0.00 0.01 0.00 0.00 0.00 0.00 0.00 0.00 0.00 0.00 0.00 0.00 0.00 0.00 0.02 0.07 0.04 0.02 0.01 0.01 0.03 0.00 0.02 0.03 0.04 0.06 0.05 0.09 0.13 0.15 0.12 0.15 0.42 0.53 0.26 0.11 0.31 0.33 0.06 0.04 0.10 0.08 0.01
0.00 0.00 0.00 0.00 0.00 0.00 0.00 0.00 0.00 0.00 0.00 0.00 0.00 0.02 0.22 0.27 0.31 0.34 0.15 0.07 0.06 0.06 0.02 0.04 0.04 0.05 0.07 0.08 0.10 0.10 0.12 0.08 0.08 0.08 0.05 0.12 0.43 0.49 0.17 0.07 0.08 0.04 0.03
0.00 0.00 0.00 0.00 0.00 0.00 0.00 0.00 0.00 0.00 0.00 0.00 0.00 0.18 0.71 0.24 0.19 0.22 0.14 0.06 0.07 0.08 0.06 0.10 0.11 0.09 0.10 0.04 0.01 0.01 0.01 0.00 0.00 0.04 0.01 0.08 0.39 0.59 0.28 0.14 0.14 0.11 0.05
0.00 0.00 0.00 0.00 0.00 0.01 0.00 0.00 0.00 0.00 0.00 0.00 0.01 0.21 0.66 0.31 0.27 0.21 0.10 0.07 0.10 0.03 0.04 0.12 0.09 0.02 0.00 0.00 0.00 0.00 0.00 0.00 0.01 0.01 0.01 0.05 0.13 0.36 0.57 0.43 0.32 0.20 0.07
0.00 0.00 0.00 0.00 0.00 0.00 0.00 0.00 0.00 0.00 0.00 0.00 0.00 0.01 0.11 0.26 0.16 0.12 0.30 0.19 0.11 0.08 0.11 0.10 0.04 0.06 0.05 0.00 0.00 0.00 0.00 0.00 0.00 0.00 0.00 0.05 0.06 0.13 0.23 0.54 0.24 0.11 0.06
0.00 0.00 0.00 0.00 0.00 0.00 0.00 0.00 0.00 0.00 0.00 0.00 0.00 0.00 0.07 0.16 0.13 0.11 0.13 0.10 0.08 0.22 0.77 0.12 0.11 0.09 0.03 0.02 0.00 0.00 0.00 0.00 0.00 0.00 0.00 0.03 0.03 0.07 0.11 0.27 0.23 0.15 0.09
0.00 0.00 0.00 0.00 0.00 0.00 0.00 0.00 0.00 0.00 0.00 0.00 0.00 0.00 0.00 0.05 0.04 0.07 0.08 0.03 0.06 0.10 0.22 0.13 0.09 0.23 0.01 0.00 0.00 0.00 0.00 0.00 0.00 0.00 0.00 0.01 0.03 0.04 0.10 0.31 0.33 0.21 0.24
0.00 0.00 0.00 0.00 0.00 0.00 0.00 0.00 0.00 0.00 0.00 0.00 0.00 0.00 0.00 0.02 0.03 0.05 0.07 0.05 0.13 0.20 0.18 0.10 0.07 0.26 0.02 0.00 0.00 0.00 0.00 0.00 0.00 0.00 0.00 0.00 0.01 0.03 0.06 0.17 0.35 0.23 0.16
0.00 0.00 0.00 0.00 0.00 0.00 0.00 0.00 0.00 0.00 0.00 0.00 0.00 0.00 0.00 0.00 0.01 0.04 0.19 0.11 0.16 0.14 0.14 0.10 0.08 0.07 0.00 0.00 0.00 0.00 0.00 0.00 0.00 0.00 0.00 0.00 0.00 0.00 0.03 0.08 0.16 0.31 0.28
0.00 0.00 0.00 0.00 0.00 0.00 0.00 0.00 0.00 0.00 0.00 0.00 0.00 0.00 0.01 0.00 0.05 0.23 0.20 0.13 0.07 0.16 0.09 0.08 0.07 0.03 0.00 0.00 0.00 0.00 0.00 0.00 0.00 0.00 0.00 0.00 0.00 0.00 0.00 0.01 0.04 0.09 0.14
0.00 0.00 0.00 0.00 0.00 0.00 0.00 0.00 0.00 0.00 0.00 0.00 0.00 0.02 0.02 0.00 0.09 0.04 0.11 0.19 0.07 0.07 0.06 0.08 0.06 0.00 0.00 0.00 0.00 0.00 0.00 0.00 0.00 0.00 0.00 0.00 0.00 0.00 0.00 0.00 0.01 0.02 0.05
0.00 0.00 0.00 0.00 0.01 0.01 0.00 0.00 0.00 0.00 0.00 0.00 0.00 0.00 0.00 0.01 0.02 0.04 0.17 0.22 0.09 0.09 0.11 0.09 0.04 0.00 0.00 0.00 0.00 0.00 0.00 0.00 0.00 0.00 0.00 0.00 0.00 0.00 0.00 0.00 0.01 0.01 0.04
0.00 0.00 0.00 0.00 0.00 0.00 0.00 0.00 0.00 0.00 0.00 0.00 0.00 0.00 0.00 0.00 0.02 0.10 0.26 0.14 0.07 0.11 0.13 0.07 0.06 0.04 0.00 0.00 0.00 0.00 0.00 0.01 0.00 0.00 0.00 0.00 0.00 0.00 0.00 0.00 0.00 0.00 0.01
0.00 0.00 0.00 0.00 0.00 0.00 0.00 0.00 0.00 0.00 0.00 0.00 0.00 0.01 0.00 0.00 0.00 0.09 0.18 0.09 0.13 0.10 0.23 0.14 0.04 0.02 0.01 0.00 0.00 0.00 0.01 0.01 0.00 0.00 0.00 0.00 0.00 0.00 0.00 0.00 0.00 0.00 0.00
0.00 0.00 0.00 0.00 0.00 0.00 0.00 0.00 0.00 0.00 0.00 0.00 0.00 0.00 0.00 0.00 0.00 0.02 0.07 0.07 0.06 0.04 0.15 0.16 0.02 0.01 0.00 0.00 0.00 0.00 0.00 0.01 0.01 0.00 0.00 0.00 0.00 0.00 0.00 0.00 0.00 0.00 0.00
0.00 0.00 0.00 0.00 0.00 0.00 0.00 0.00 0.00 0.00 0.00 0.00 0.00 0.00 0.00 0.00 0.00 0.00 0.02 0.11 0.03 0.03 0.06 0.11 0.03 0.00 0.00 0.00 0.00 0.00 0.00 0.00 0.00 0.00 0.00 0.00 0.00 0.00 0.00 0.00 0.00 0.00 0.00
0.00 0.00 0.00 0.00 0.00 0.00 0.00 0.00 0.00 0.00 0.00 0.00 0.00 0.00 0.00 0.00 0.00 0.00 0.01 0.03 0.04 0.01 0.03 0.07 0.03 0.00 0.00 0.00 0.00 0.00 0.00 0.00 0.00 0.00 0.00 0.00 0.00 0.00 0.00 0.00 0.00 0.00 0.00

GFSSE_prec_precacc24_033.txt.gz
Total_Precipitation_Accumulation
0.35 0.44 0.73 0.68 0.40 0.31 0.19 0.04 0.05 0.06 0.04 0.01 0.00 0.00 0.00 0.00 0.01 0.02 0.04 0.09 0.11 0.13 0.06 0.02 0.02 0.03 0.09 0.11 0.07 0.04 0.03 0.04 0.04 0.00 0.00 0.01 0.04 0.06 0.04 0.03 0.12 0.04 0.05
0.49 0.15 0.55 0.60 0.46 0.21 0.07 0.03 0.04 0.03 0.03 0.00 0.01 0.01 0.01 0.01 0.01 0.01 0.03 0.05 0.06 0.13 0.07 0.01 0.00 0.02 0.06 0.07 0.08 0.09 0.05 0.10 0.17 0.06 0.13 0.19 0.24 0.20 0.05 0.10 0.27 0.03 0.07
0.22 0.05 0.26 0.45 0.39 0.12 0.05 0.04 0.01 0.01 0.00 0.00 0.00 0.04 0.02 0.03 0.03 0.07 0.08 0.05 0.03 0.03 0.04 0.03 0.01 0.02 0.02 0.05 0.13 0.14 0.12 0.12 0.17 0.17 0.20 0.14 0.09 0.13 0.08 0.25 0.14 0.08 0.22
0.01 0.02 0.06 0.55 0.29 0.07 0.05 0.03 0.00 0.00 0.00 0.00 0.01 0.04 0.04 0.05 0.06 0.01 0.01 0.02 0.01 0.01 0.02 0.07 0.06 0.04 0.06 0.09 0.12 0.14 0.21 0.18 0.19 0.23 0.15 0.03 0.04 0.08 0.11 0.11 0.13 0.20 0.12
0.01 0.00 0.08 0.18 0.13 0.04 0.04 0.01 0.00 0.00 0.00 0.00 0.01 0.01 0.03 0.02 0.03 0.02 0.02 0.04 0.05 0.02 0.02 0.00 0.02 0.07 0.10 0.11 0.23 0.29 0.42 0.40 0.20 0.24 0.13 0.09 0.04 0.04 0.08 0.16 0.13 0.09 0.08
0.01 0.01 0.05 0.06 0.01 0.04 0.01 0.00 0.00 0.00 0.00 0.00 0.00 0.02 0.02 0.01 0.01 0.02 0.07 0.08 0.07 0.02 0.00 0.00 0.00 0.01 0.10 0.15 0.22 0.38 0.50 0.53 0.47 0.25 0.07 0.06 0.22 0.04 0.07 0.15 0.14 0.05 0.03
0.01 0.00 0.01 0.10 0.05 0.02 0.01 0.00 0.00 0.00 0.00 0.00 0.00 0.00 0.00 0.01 0.02 0.06 0.06 0.05 0.06 0.02 0.02 0.00 0.00 0.02 0.06 0.19 0.21 0.24 0.31 0.65 1.31 0.77 0.25 0.08 0.07 0.07 0.05 0.16 0.07 0.03 0.10
0.01 0.00 0.00 0.03 0.02 0.02 0.03 0.00 0.00 0.00 0.00 0.00 0.00 0.00 0.00 0.00 0.01 0.02 0.01 0.01 0.02 0.00 0.00 0.00 0.01 0.04 0.08 0.11 0.16 0.16 0.11 0.20 0.31 0.48 0.34 0.13 0.04 0.14 0.14 0.07 0.07 0.04 0.06
0.01 0.00 0.00 0.00 0.00 0.03 0.02 0.00 0.00 0.00 0.00 0.00 0.00 0.00 0.00 0.00 0.01 0.00 0.00 0.00 0.00 0.00 0.01 0.01 0.02 0.03 0.06 0.12 0.18 0.17 0.08 0.17 0.16 0.08 0.04 0.04 0.08 0.14 0.08 0.02 0.03 0.03 0.03
0.00 0.01 0.00 0.00 0.00 0.00 0.00 0.00 0.00 0.00 0.00 0.00 0.00 0.01 0.04 0.07 0.04 0.02 0.01 0.01 0.03 0.00 0.02 0.03 0.04 0.06 0.05 0.09 0.13 0.15 0.11 0.08 0.20 0.10 0.03 0.02 0.16 0.22 0.06 0.04 0.09 0.05 0.01
0.00 0.00 0.00 0.00 0.00 0.00 0.00 0.00 0.00 0.00 0.00 0.00 0.01 0.06 0.31 0.31 0.31 0.33 0.07 0.01 0.05 0.05 0.02 0.04 0.04 0.05 0.07 0.08 0.09 0.09 0.11 0.06 0.05 0.04 0.02 0.07 0.36 0.25 0.06 0.06 0.07 0.02 0.02
0.00 0.00 0.00 0.00 0.00 0.00 0.00 0.00 0.00 0.00 0.00 0.00 0.01 0.19 0.80 0.21 0.12 0.12 0.01 0.01 0.01 0.04 0.06 0.08 0.08 0.08 0.10 0.04 0.00 0.01 0.04 0.01 0.00 0.00 0.00 0.04 0.29 0.52 0.24 0.06 0.12 0.09 0.03
0.00 0.00 0.00 0.00 0.00 0.00 0.00 0.00 0.00 0.00 0.00 0.00 0.03 0.26 0.83 0.25 0.10 0.12 0.01 0.01 0.04 0.02 0.02 0.07 0.04 0.01 0.00 0.00 0.00 0.00 0.01 0.01 0.01 0.00 0.00 0.03 0.08 0.28 0.53 0.36 0.04 0.08 0.06
0.00 0.00 0.00 0.00 0.00 0.00 0.00 0.00 0.00 0.00 0.00 0.00 0.01 0.05 0.17 0.27 0.15 0.03 0.03 0.02 0.03 0.05 0.09 0.04 0.02 0.07 0.05 0.00 0.00 0.00 0.00 0.00 0.00 0.00 0.00 0.04 0.04 0.10 0.15 0.48 0.18 0.05 0.05
0.00 0.00 0.00 0.00 0.00 0.00 0.00 0.00 0.00 0.00 0.00 0.00 0.00 0.00 0.11 0.22 0.10 0.04 0.04 0.06 0.04 0.14 0.72 0.09 0.10 0.10 0.03 0.02 0.00 0.00 0.00 0.00 0.00 0.00 0.00 0.02 0.02 0.05 0.07 0.21 0.23 0.10 0.08
0.00 0.00 0.00 0.00 0.00 0.00 0.00 0.00 0.00 0.00 0.00 0.00 0.00 0.00 0.01 0.08 0.08 0.07 0.12 0.09 0.08 0.10 0.22 0.13 0.10 0.23 0.01 0.00 0.00 0.00 0.00 0.00 0.00 0.00 0.00 0.01 0.03 0.03 0.07 0.25 0.29 0.19 0.17
0.00 0.00 0.00 0.00 0.00 0.00 0.00 0.00 0.00 0.00 0.00 0.00 0.00 0.00 0.00 0.02 0.04 0.06 0.07 0.03 0.09 0.20 0.18 0.10 0.09 0.26 0.02 0.00 0.00 0.00 0.00 0.00 0.00 0.00 0.00 0.00 0.01 0.03 0.04 0.14 0.33 0.17 0.12
0.00 0.00 0.00 0.00 0.00 0.00 0.00 0.00 0.00 0.00 0.00 0.00 0.00 0.00 0.00 0.00 0.01 0.06 0.17 0.12 0.11 0.16 0.15 0.10 0.08 0.06 0.00 0.00 0.00 0.00 0.00 0.00 0.00 0.00 0.00 0.00 0.00 0.00 0.02 0.06 0.16 0.32 0.26
0.00 0.00 0.00 0.00 0.00 0.00 0.00 0.00 0.00 0.00 0.00 0.00 0.00 0.00 0.00 0.00 0.05 0.23 0.20 0.18 0.08 0.15 0.09 0.08 0.07 0.03 0.00 0.00 0.00 0.00 0.00 0.00 0.00 0.00 0.00 0.00 0.00 0.00 0.00 0.01 0.03 0.10 0.13
0.00 0.00 0.00 0.00 0.00 0.00 0.00 0.00 0.00 0.00 0.00 0.00 0.00 0.02 0.01 0.00 0.07 0.05 0.15 0.24 0.11 0.07 0.07 0.09 0.06 0.00 0.00 0.00 0.00 0.00 0.00 0.00 0.00 0.00 0.00 0.00 0.00 0.00 0.00 0.00 0.01 0.02 0.05
0.00 0.00 0.00 0.00 0.01 0.01 0.00 0.00 0.00 0.00 0.00 0.00 0.00 0.00 0.00 0.00 0.00 0.05 0.16 0.27 0.10 0.09 0.11 0.09 0.04 0.00 0.00 0.00 0.00 0.00 0.00 0.00 0.00 0.00 0.00 0.00 0.00 0.00 0.00 0.00 0.01 0.01 0.03
0.00 0.00 0.00 0.00 0.00 0.00 0.00 0.00 0.00 0.00 0.00 0.00 0.00 0.00 0.00 0.00 0.01 0.10 0.26 0.15 0.07 0.12 0.13 0.08 0.07 0.04 0.00 0.00 0.00 0.00 0.00 0.00 0.00 0.00 0.00 0.00 0.00 0.00 0.00 0.00 0.00 0.00 0.01
0.00 0.00 0.00 0.00 0.00 0.00 0.00 0.00 0.00 0.00 0.00 0.00 0.00 0.00 0.00 0.00 0.00 0.09 0.18 0.10 0.14 0.11 0.23 0.15 0.04 0.02 0.01 0.00 0.00 0.00 0.00 0.00 0.00 0.00 0.00 0.00 0.00 0.00 0.00 0.00 0.00 0.00 0.00
0.00 0.00 0.00 0.00 0.00 0.00 0.00 0.00 0.00 0.00 0.00 0.00 0.00 0.00 0.00 0.00 0.00 0.02 0.07 0.08 0.06 0.04 0.15 0.17 0.02 0.01 0.00 0.00 0.00 0.00 0.00 0.01 0.00 0.00 0.00 0.00 0.00 0.00 0.00 0.00 0.00 0.00 0.00
0.00 0.00 0.00 0.00 0.00 0.00 0.00 0.00 0.00 0.00 0.00 0.00 0.00 0.00 0.00 0.00 0.00 0.00 0.02 0.11 0.03 0.04 0.06 0.11 0.03 0.00 0.00 0.00 0.00 0.00 0.00 0.00 0.00 0.00 0.00 0.00 0.00 0.00 0.00 0.00 0.00 0.00 0.00
0.00 0.00 0.00 0.00 0.00 0.00 0.00 0.00 0.00 0.00 0.00 0.00 0.00 0.00 0.00 0.00 0.00 0.00 0.01 0.03 0.04 0.01 0.03 0.07 0.03 0.00 0.00 0.00 0.00 0.00 0.00 0.00 0.00 0.00 0.00 0.00 0.00 0.00 0.00 0.00 0.00 0.00 0.00

GFSSE_prec_precacc24_036.txt.gz
Total_Precipitation_Accumulation
0.35 0.43 0.68 0.62 0.30 0.26 0.17 0.04 0.06 0.06 0.04 0.01 0.00 0.00 0.00 0.00 0.01 0.02 0.04 0.09 0.11 0.13 0.06 0.02 0.02 0.03 0.08 0.06 0.03 0.02 0.02 0.01 0.00 0.00 0.00 0.01 0.04 0.06 0.05 0.06 0.13 0.04 0.08
0.49 0.17 0.50 0.52 0.38 0.19 0.07 0.03 0.04 0.03 0.03 0.00 0.01 0.01 0.01 0.01 0.01 0.01 0.03 0.06 0.06 0.13 0.07 0.01 0.00 0.02 0.06 0.05 0.03 0.01 0.02 0.06 0.09 0.05 0.13 0.19 0.22 0.16 0.12 0.15 0.27 0.04 0.08
0.22 0.04 0.21 0.40 0.36 0.12 0.05 0.04 0.01 0.01 0.00 0.00 0.00 0.04 0.02 0.03 0.03 0.07 0.08 0.05 0.04 0.03 0.04 0.03 0.01 0.02 0.02 0.05 0.13 0.12 0.10 0.12 0.17 0.15 0.20 0.14 0.09 0.11 0.18 0.30 0.16 0.11 0.17
0.01 0.01 0.04 0.47 0.27 0.06 0.05 0.03 0.01 0.00 0.00 0.00 0.01 0.04 0.04 0.05 0.06 0.01 0.01 0.02 0.01 0.01 0.02 0.07 0.05 0.04 0.06 0.09 0.12 0.14 0.22 0.18 0.18 0.19 0.15 0.03 0.05 0.16 0.12 0.11 0.14 0.21 0.12
0.01 0.00 0.07 0.17 0.12 0.04 0.04 0.01 0.00 0.00 0.00 0.00 0.01 0.01 0.04 0.02 0.03 0.02 0.02 0.04 0.05 0.02 0.02 0.00 0.02 0.07 0.10 0.11 0.23 0.25 0.35 0.25 0.10 0.17 0.12 0.09 0.04 0.04 0.08 0.16 0.15 0.09 0.08
0.01 0.01 0.05 0.06 0.01 0.04 0.01 0.00 0.00 0.00 0.00 0.00 0.00 0.02 0.02 0.01 0.01 0.02 0.07 0.08 0.07 0.02 0.00 0.00 0.00 0.01 0.10 0.16 0.23 0.32 0.34 0.35 0.26 0.18 0.06 0.05 0.22 0.05 0.07 0.14 0.09 0.05 0.05
0.01 0.00 0.01 0.10 0.06 0.03 0.01 0.00 0.00 0.00 0.00 0.00 0.00 0.00 0.00 0.01 0.02 0.06 0.06 0.05 0.06 0.02 0.02 0.00 0.00 0.02 0.07 0.22 0.19 0.24 0.23 0.24 0.18 0.16 0.07 0.04 0.07 0.07 0.05 0.14 0.07 0.04 0.10
0.01 0.00 0.01 0.03 0.03 0.02 0.03 0.00 0.00 0.00 0.00 0.01 0.01 0.00 0.00 0.00 0.01 0.02 0.01 0.01 0.02 0.00 0.00 0.00 0.01 0.04 0.08 0.11 0.13 0.12 0.09 0.08 0.07 0.02 0.02 0.06 0.02 0.13 0.14 0.07 0.07 0.05 0.05
0.01 0.00 0.00 0.00 0.00 0.03 0.02 0.00 0.00 0.00 0.00 0.01 0.00 0.00 0.00 0.00 0.01 0.00 0.00 0.00 0.00 0.00 0.01 0.01 0.02 0.03 0.06 0.09 0.12 0.10 0.07 0.16 0.16 0.08 0.01 0.00 0.06 0.14 0.08 0.02 0.03 0.03 0.05
0.00 0.01 0.00 0.00 0.00 0.00 0.00 0.00 0.00 0.00 0.00 0.00 0.00 0.01 0.04 0.07 0.04 0.01 0.01 0.01 0.03 0.00 0.02 0.03 0.04 0.06 0.06 0.06 0.08 0.08 0.14 0.14 0.20 0.10 0.01 0.01 0.07 0.14 0.06 0.04 0.09 0.04 0.01
0.00 0.00 0.00 0.00 0.00 0.00 0.00 0.00 0.00 0.00 0.00 0.00 0.01 0.06 0.30 0.31 0.30 0.31 0.06 0.00 0.05 0.05 0.02 0.04 0.04 0.05 0.07 0.06 0.05 0.06 0.10 0.14 0.14 0.04 0.01 0.04 0.30 0.15 0.04 0.06 0.07 0.02 0.02
0.00 0.00 0.00 0.00 0.00 0.00 0.00 0.00 0.00 0.00 0.00 0.00 0.01 0.19 0.79 0.20 0.11 0.12 0.00 0.01 0.00 0.04 0.06 0.07 0.08 0.09 0.11 0.04 0.00 0.02 0.06 0.05 0.08 0.01 0.00 0.03 0.24 0.47 0.23 0.06 0.12 0.10 0.04
0.00 0.00 0.00 0.00 0.00 0.00 0.00 0.00 0.00 0.00 0.00 0.00 0.03 0.26 0.81 0.23 0.10 0.12 0.01 0.01 0.00 0.02 0.02 0.06 0.04 0.01 0.00 0.00 0.00 0.00 0.01 0.02 0.04 0.00 0.00 0.02 0.07 0.26 0.53 0.33 0.04 0.08 0.06
0.00 0.00 0.00 0.00 0.00 0.00 0.00 0.00 0.00 0.00 0.00 0.00 0.01 0.05 0.16 0.26 0.14 0.03 0.04 0.02 0.02 0.05 0.09 0.04 0.02 0.07 0.05 0.00 0.00 0.00 0.00 0.00 0.00 0.00 0.00 0.03 0.05 0.10 0.15 0.44 0.15 0.05 0.05
0.00 0.00 0.00 0.00 0.00 0.00 0.00 0.00 0.00 0.00 0.00 0.00 0.00 0.00 0.10 0.21 0.09 0.04 0.04 0.06 0.05 0.15 0.72 0.09 0.10 0.09 0.03 0.02 0.00 0.00 0.00 0.00 0.00 0.00 0.00 0.01 0.02 0.04 0.06 0.19 0.22 0.10 0.08
0.00 0.00 0.00 0.00 0.00 0.00 0.00 0.00 0.00 0.00 0.00 0.00 0.00 0.00 0.01 0.08 0.08 0.07 0.10 0.07 0.07 0.09 0.22 0.14 0.11 0.23 0.01 0.00 0.00 0.00 0.00 0.00 0.00 0.00 0.00 0.00 0.02 0.02 0.07 0.22 0.23 0.19 0.18
0.00 0.00 0.00 0.00 0.00 0.00 0.00 0.00 0.00 0.00 0.00 0.00 0.00 0.00 0.00 0.02 0.04 0.08 0.06 0.04 0.08 0.15 0.13 0.12 0.10 0.26 0.02 0.00 0.00 0.00 0.00 0.00 0.00 0.00 0.00 0.00 0.00 0.02 0.04 0.12 0.28 0.14 0.11
0.00 0.00 0.00 0.00 0.00 0.00 0.00 0.00 0.00 0.00 0.00 0.00 0.00 0.00 0.00 0.00 0.01 0.05 0.17 0.13 0.12 0.19 0.16 0.15 0.09 0.06 0.00 0.00 0.00 0.00 0.00 0.00 0.00 0.00 0.00 0.00 0.00 0.00 0.02 0.06 0.14 0.28 0.20
0.00 0.00 0.00 0.00 0.00 0.00 0.00 0.00 0.00 0.00 0.00 0.00 0.00 0.00 0.00 0.00 0.05 0.23 0.21 0.18 0.09 0.16 0.10 0.09 0.09 0.04 0.00 0.00 0.00 0.00 0.00 0.00 0.00 0.00 0.00 0.00 0.00 0.00 0.00 0.02 0.05 0.15 0.18
0.00 0.00 0.00 0.00 0.00 0.00 0.00 0.00 0.00 0.00 0.00 0.00 0.00 0.02 0.01 0.00 0.07 0.05 0.16 0.26 0.11 0.08 0.08 0.09 0.07 0.00 0.00 0.00 0.00 0.00 0.00 0.00 0.00 0.00 0.00 0.00 0.00 0.00 0.00 0.00 0.01 0.02 0.04
0.00 0.00 0.00 0.00 0.01 0.01 0.00 0.00 0.00 0.00 0.00 0.00 0.00 0.00 0.00 0.00 0.00 0.05 0.16 0.30 0.11 0.09 0.13 0.10 0.04 0.00 0.00 0.00 0.00 0.00 0.00 0.00 0.00 0.00 0.00 0.00 0.00 0.00 0.00 0.00 0.01 0.00 0.03
0.00 0.00 0.00 0.00 0.00 0.00 0.00 0.00 0.00 0.00 0.00 0.00 0.00 0.00 0.00 0.00 0.01 0.10 0.26 0.16 0.07 0.12 0.16 0.08 0.07 0.04 0.00 0.00 0.00 0.00 0.00 0.00 0.00 0.00 0.00 0.00 0.00 0.00 0.00 0.00 0.00 0.00 0.01
0.00 0.00 0.00 0.00 0.00 0.00 0.00 0.00 0.00 0.00 0.00 0.00 0.00 0.00 0.00 0.00 0.00 0.09 0.18 0.10 0.14 0.11 0.23 0.15 0.04 0.02 0.01 0.00 0.00 0.00 0.00 0.00 0.00 0.00 0.00 0.00 0.00 0.00 0.00 0.00 0.00 0.00 0.00
0.00 0.00 0.00 0.00 0.00 0.00 0.00 0.00 0.00 0.00 0.00 0.00 0.00 0.00 0.00 0.00 0.00 0.02 0.07 0.08 0.06 0.05 0.15 0.17 0.02 0.01 0.00 0.00 0.00 0.00 0.00 0.01 0.00 0.00 0.00 0.00 0.00 0.00 0.00 0.00 0.00 0.00 0.00
0.00 0.00 0.00 0.00 0.00 0.00 0.00 0.00 0.00 0.00 0.00 0.00 0.00 0.00 0.00 0.00 0.00 0.00 0.02 0.11 0.03 0.04 0.06 0.11 0.03 0.00 0.00 0.00 0.00 0.00 0.00 0.00 0.00 0.00 0.00 0.00 0.00 0.00 0.00 0.00 0.00 0.00 0.00
0.00 0.00 0.00 0.00 0.00 0.00 0.00 0.00 0.00 0.00 0.00 0.00 0.00 0.00 0.00 0.00 0.00 0.00 0.01 0.03 0.04 0.01 0.03 0.07 0.03 0.00 0.00 0.00 0.00 0.00 0.00 0.00 0.00 0.00 0.00 0.00 0.00 0.00 0.00 0.00 0.00 0.00 0.00

GFSSE_prec_precacc24_042.txt.gz
Total_Precipitation_Accumulation
0.35 0.61 0.58 0.42 0.12 0.04 0.03 0.01 0.04 0.06 0.04 0.01 0.01 0.01 0.01 0.01 0.01 0.03 0.05 0.10 0.11 0.13 0.06 0.03 0.02 0.00 0.00 0.00 0.00 0.00 0.00 0.00 0.00 0.01 0.01 0.02 0.02 0.03 0.02 0.05 0.12 0.04 0.08
0.49 0.26 0.46 0.34 0.12 0.05 0.04 0.03 0.04 0.03 0.03 0.01 0.01 0.02 0.02 0.01 0.05 0.03 0.03 0.06 0.06 0.13 0.08 0.02 0.01 0.00 0.00 0.01 0.01 0.01 0.01 0.00 0.01 0.06 0.14 0.08 0.12 0.15 0.12 0.15 0.27 0.05 0.09
0.22 0.07 0.12 0.17 0.13 0.07 0.05 0.05 0.02 0.01 0.01 0.01 0.01 0.05 0.04 0.08 0.08 0.07 0.08 0.05 0.04 0.03 0.03 0.04 0.03 0.01 0.00 0.04 0.12 0.10 0.06 0.04 0.08 0.12 0.21 0.06 0.04 0.24 0.22 0.31 0.18 0.11 0.15
0.01 0.04 0.01 0.21 0.15 0.06 0.06 0.03 0.01 0.01 0.01 0.01 0.03 0.05 0.06 0.17 0.12 0.03 0.02 0.02 0.03 0.08 0.13 0.19 0.13 0.01 0.01 0.04 0.11 0.24 0.22 0.05 0.07 0.17 0.15 0.03 0.07 0.25 0.12 0.11 0.16 0.23 0.08
0.01 0.02 0.02 0.10 0.08 0.05 0.05 0.01 0.01 0.01 0.00 0.01 0.02 0.03 0.09 0.09 0.06 0.02 0.02 0.04 0.06 0.03 0.03 0.02 0.01 0.00 0.05 0.14 0.16 0.24 0.28 0.11 0.03 0.15 0.12 0.09 0.08 0.03 0.09 0.17 0.16 0.08 0.08
0.02 0.01 0.01 0.04 0.02 0.04 0.02 0.01 0.01 0.01 0.02 0.02 0.03 0.06 0.09 0.05 0.01 0.02 0.07 0.08 0.07 0.02 0.00 0.00 0.00 0.00 0.02 0.10 0.21 0.28 0.27 0.28 0.19 0.17 0.06 0.05 0.22 0.05 0.08 0.15 0.09 0.03 0.04
0.01 0.00 0.01 0.09 0.06 0.03 0.01 0.00 0.01 0.01 0.03 0.02 0.02 0.03 0.02 0.01 0.02 0.06 0.06 0.05 0.06 0.02 0.00 0.00 0.00 0.00 0.05 0.21 0.18 0.25 0.30 0.17 0.09 0.15 0.07 0.04 0.08 0.08 0.05 0.15 0.08 0.05 0.12
0.01 0.00 0.01 0.03 0.03 0.04 0.03 0.01 0.01 0.00 0.01 0.03 0.05 0.03 0.01 0.00 0.01 0.02 0.01 0.01 0.01 0.00 0.00 0.00 0.01 0.01 0.02 0.10 0.14 0.20 0.26 0.09 0.07 0.01 0.02 0.06 0.01 0.08 0.10 0.07 0.07 0.06 0.07
0.01 0.00 0.01 0.01 0.01 0.03 0.04 0.02 0.01 0.01 0.02 0.01 0.01 0.01 0.00 0.00 0.00 0.00 0.01 0.00 0.00 0.00 0.00 0.00 0.00 0.00 0.03 0.05 0.11 0.05 0.22 0.18 0.16 0.08 0.01 0.00 0.05 0.10 0.06 0.02 0.04 0.04 0.08
0.00 0.00 0.00 0.00 0.00 0.00 0.00 0.01 0.00 0.01 0.00 0.00 0.00 0.01 0.04 0.07 0.04 0.03 0.03 0.02 0.03 0.00 0.01 0.02 0.03 0.02 0.03 0.07 0.11 0.06 0.15 0.17 0.20 0.09 0.00 0.01 0.08 0.16 0.07 0.03 0.09 0.03 0.03
0.00 0.00 0.00 0.00 0.00 0.00 0.00 0.00 0.00 0.00 0.00 0.00 0.01 0.06 0.30 0.25 0.25 0.23 0.04 0.01 0.05 0.05 0.02 0.01 0.02 0.04 0.03 0.03 0.08 0.15 0.07 0.13 0.16 0.04 0.01 0.04 0.17 0.07 0.04 0.06 0.02 0.02 0.03
0.00 0.00 0.00 0.00 0.00 0.00 0.00 0.00 0.00 0.00 0.00 0.00 0.01 0.19 0.79 0.20 0.10 0.12 0.02 0.05 0.02 0.05 0.06 0.04 0.05 0.05 0.08 0.03 0.01 0.08 0.07 0.05 0.08 0.01 0.01 0.04 0.15 0.11 0.10 0.05 0.10 0.09 0.04
0.00 0.00 0.00 0.00 0.00 0.00 0.00 0.00 0.00 0.00 0.00 0.00 0.03 0.26 0.81 0.23 0.10 0.12 0.01 0.05 0.01 0.02 0.02 0.07 0.05 0.01 0.00 0.00 0.00 0.00 0.01 0.02 0.04 0.00 0.01 0.02 0.04 0.08 0.25 0.13 0.04 0.07 0.06
0.00 0.00 0.00 0.00 0.00 0.00 0.00 0.00 0.00 0.00 0.00 0.00 0.01 0.05 0.16 0.25 0.14 0.03 0.04 0.02 0.02 0.05 0.10 0.05 0.03 0.07 0.04 0.00 0.00 0.00 0.00 0.00 0.00 0.00 0.00 0.02 0.08 0.04 0.05 0.03 0.05 0.05 0.03
0.00 0.00 0.00 0.00 0.00 0.00 0.00 0.00 0.00 0.00 0.00 0.00 0.00 0.00 0.10 0.21 0.11 0.05 0.05 0.08 0.05 0.16 0.75 0.12 0.11 0.09 0.02 0.02 0.00 0.00 0.00 0.00 0.00 0.00 0.00 0.02 0.06 0.15 0.04 0.03 0.05 0.04 0.06
0.00 0.00 0.00 0.00 0.00 0.00 0.00 0.00 0.00 0.00 0.00 0.00 0.00 0.00 0.01 0.09 0.17 0.18 0.14 0.07 0.06 0.08 0.22 0.15 0.10 0.23 0.01 0.00 0.00 0.00 0.00 0.00 0.00 0.00 0.00 0.02 0.03 0.08 0.10 0.06 0.07 0.10 0.08
0.00 0.00 0.00 0.00 0.00 0.00 0.00 0.00 0.00 0.00 0.00 0.00 0.00 0.00 0.00 0.01 0.08 0.12 0.11 0.08 0.09 0.15 0.12 0.13 0.10 0.26 0.02 0.00 0.00 0.00 0.00 0.00 0.00 0.00 0.00 0.02 0.02 0.03 0.11 0.21 0.14 0.07 0.12
0.00 0.00 0.00 0.00 0.00 0.00 0.00 0.00 0.00 0.00 0.00 0.00 0.00 0.00 0.00 0.00 0.03 0.10 0.22 0.15 0.13 0.19 0.17 0.16 0.10 0.06 0.00 0.00 0.00 0.00 0.00 0.00 0.00 0.00 0.00 0.00 0.00 0.00 0.05 0.12 0.24 0.22 0.20
0.00 0.00 0.00 0.00 0.00 0.00 0.00 0.00 0.00 0.00 0.00 0.00 0.00 0.00 0.00 0.00 0.01 0.09 0.26 0.24 0.10 0.18 0.13 0.11 0.11 0.04 0.00 0.00 0.00 0.00 0.00 0.00 0.00 0.00 0.00 0.00 0.00 0.00 0.00 0.05 0.10 0.19 0.21
0.00 0.00 0.00 0.00 0.00 0.00 0.00 0.00 0.00 0.00 0.00 0.00 0.00 0.01 0.01 0.00 0.01 0.02 0.24 0.37 0.16 0.12 0.13 0.13 0.08 0.00 0.00 0.00 0.00 0.00 0.00 0.00 0.00 0.00 0.00 0.00 0.00 0.00 0.00 0.00 0.03 0.04 0.05
0.00 0.00 0.00 0.00 0.01 0.01 0.00 0.00 0.00 0.00 0.00 0.00 0.00 0.00 0.00 0.00 0.00 0.05 0.19 0.34 0.16 0.14 0.14 0.12 0.04 0.00 0.00 0.00 0.00 0.00 0.00 0.00 0.00 0.00 0.00 0.00 0.00 0.00 0.00 0.00 0.01 0.00 0.02
0.00 0.00 0.00 0.00 0.00 0.00 0.00 0.00 0.00 0.00 0.00 0.00 0.00 0.00 0.00 0.00 0.01 0.10 0.27 0.17 0.12 0.14 0.16 0.08 0.07 0.04 0.00 0.00 0.00 0.00 0.00 0.00 0.00 0.00 0.00 0.00 0.00 0.00 0.00 0.00 0.00 0.00 0.01
0.00 0.00 0.00 0.00 0.00 0.00 0.00 0.00 0.00 0.00 0.00 0.00 0.00 0.00 0.00 0.00 0.00 0.09 0.18 0.11 0.16 0.13 0.24 0.15 0.04 0.02 0.01 0.00 0.00 0.00 0.00 0.00 0.00 0.00 0.00 0.00 0.00 0.00 0.00 0.00 0.00 0.00 0.00
0.00 0.00 0.00 0.00 0.00 0.00 0.00 0.00 0.00 0.00 0.00 0.00 0.00 0.00 0.00 0.00 0.00 0.02 0.07 0.08 0.06 0.06 0.16 0.17 0.02 0.01 0.00 0.00 0.00 0.00 0.00 0.01 0.00 0.00 0.00 0.00 0.00 0.00 0.00 0.00 0.00 0.00 0.00
0.00 0.00 0.00 0.00 0.00 0.00 0.00 0.00 0.00 0.00 0.00 0.00 0.00 0.00 0.00 0.00 0.00 0.00 0.02 0.11 0.03 0.05 0.10 0.11 0.03 0.00 0.00 0.00 0.00 0.00 0.00 0.00 0.00 0.00 0.00 0.00 0.00 0.00 0.00 0.00 0.00 0.00 0.00
0.00 0.00 0.00 0.00 0.00 0.00 0.00 0.00 0.00 0.00 0.00 0.00 0.00 0.00 0.00 0.00 0.00 0.00 0.01 0.03 0.04 0.01 0.03 0.07 0.03 0.00 0.00 0.00 0.00 0.00 0.00 0.00 0.00 0.00 0.00 0.00 0.00 0.00 0.00 0.00 0.00 0.00 0.00

GFSSE_prec_precacc24_045.txt.gz
Total_Precipitation_Accumulation
0.31 0.53 0.40 0.22 0.06 0.02 0.02 0.00 0.01 0.02 0.02 0.01 0.01 0.01 0.01 0.00 0.02 0.04 0.05 0.09 0.11 0.11 0.05 0.03 0.02 0.00 0.00 0.00 0.00 0.00 0.00 0.01 0.04 0.04 0.05 0.02 0.02 0.04 0.02 0.05 0.12 0.04 0.08
0.49 0.26 0.38 0.20 0.04 0.04 0.03 0.02 0.02 0.02 0.03 0.01 0.01 0.02 0.02 0.03 0.08 0.05 0.04 0.07 0.08 0.13 0.09 0.02 0.01 0.00 0.00 0.01 0.01 0.01 0.00 0.00 0.02 0.07 0.15 0.08 0.10 0.13 0.12 0.16 0.28 0.04 0.07
0.22 0.08 0.09 0.14 0.08 0.06 0.05 0.05 0.02 0.01 0.02 0.02 0.05 0.09 0.06 0.09 0.10 0.12 0.09 0.05 0.03 0.05 0.06 0.04 0.03 0.00 0.01 0.06 0.13 0.10 0.05 0.05 0.08 0.12 0.21 0.06 0.04 0.24 0.25 0.32 0.20 0.11 0.15
0.01 0.04 0.01 0.13 0.10 0.07 0.08 0.04 0.02 0.01 0.06 0.09 0.08 0.06 0.07 0.20 0.14 0.05 0.05 0.06 0.07 0.08 0.13 0.17 0.12 0.01 0.01 0.06 0.17 0.29 0.19 0.03 0.07 0.17 0.14 0.03 0.08 0.29 0.14 0.14 0.16 0.21 0.05
0.01 0.03 0.00 0.06 0.08 0.06 0.05 0.02 0.02 0.01 0.01 0.02 0.04 0.08 0.11 0.15 0.13 0.09 0.09 0.05 0.06 0.03 0.02 0.02 0.01 0.00 0.05 0.19 0.22 0.16 0.23 0.10 0.03 0.15 0.13 0.12 0.09 0.06 0.11 0.17 0.17 0.09 0.09
0.02 0.01 0.01 0.04 0.02 0.05 0.02 0.03 0.01 0.01 0.02 0.06 0.05 0.06 0.10 0.10 0.05 0.02 0.03 0.06 0.06 0.02 0.00 0.00 0.00 0.00 0.02 0.11 0.16 0.19 0.19 0.23 0.19 0.17 0.06 0.08 0.20 0.10 0.11 0.14 0.09 0.05 0.06
0.01 0.01 0.01 0.10 0.06 0.04 0.02 0.01 0.01 0.02 0.06 0.05 0.02 0.03 0.03 0.02 0.03 0.06 0.06 0.03 0.05 0.01 0.00 0.00 0.00 0.01 0.07 0.18 0.19 0.25 0.26 0.15 0.09 0.15 0.08 0.06 0.10 0.09 0.07 0.11 0.08 0.06 0.12
0.01 0.00 0.02 0.04 0.03 0.06 0.04 0.02 0.01 0.02 0.02 0.03 0.05 0.03 0.02 0.01 0.01 0.02 0.01 0.00 0.00 0.00 0.00 0.02 0.05 0.05 0.03 0.17 0.18 0.22 0.27 0.09 0.07 0.01 0.05 0.10 0.03 0.04 0.09 0.08 0.06 0.08 0.07
0.01 0.00 0.01 0.01 0.03 0.06 0.06 0.03 0.01 0.02 0.02 0.02 0.01 0.02 0.00 0.00 0.00 0.00 0.01 0.00 0.00 0.00 0.00 0.01 0.02 0.03 0.07 0.10 0.16 0.06 0.22 0.18 0.16 0.08 0.01 0.00 0.06 0.09 0.06 0.03 0.05 0.04 0.08
0.00 0.00 0.00 0.00 0.01 0.01 0.03 0.03 0.02 0.02 0.03 0.01 0.01 0.01 0.02 0.03 0.05 0.03 0.04 0.02 0.01 0.00 0.00 0.02 0.03 0.03 0.05 0.09 0.14 0.06 0.15 0.17 0.20 0.09 0.00 0.02 0.09 0.16 0.05 0.03 0.05 0.03 0.03
0.01 0.00 0.00 0.00 0.00 0.00 0.01 0.02 0.06 0.03 0.00 0.00 0.01 0.06 0.28 0.22 0.24 0.23 0.08 0.03 0.00 0.01 0.03 0.04 0.01 0.03 0.02 0.03 0.08 0.16 0.08 0.13 0.16 0.04 0.01 0.02 0.09 0.05 0.04 0.05 0.02 0.02 0.03
0.00 0.01 0.00 0.00 0.00 0.00 0.00 0.00 0.01 0.00 0.00 0.00 0.01 0.19 0.79 0.16 0.09 0.12 0.06 0.08 0.03 0.05 0.07 0.05 0.04 0.03 0.07 0.03 0.01 0.08 0.06 0.05 0.08 0.01 0.01 0.03 0.04 0.04 0.04 0.04 0.06 0.03 0.03
0.00 0.00 0.00 0.00 0.00 0.00 0.00 0.00 0.00 0.00 0.00 0.00 0.03 0.26 0.81 0.23 0.10 0.12 0.02 0.06 0.01 0.02 0.02 0.07 0.05 0.01 0.00 0.00 0.00 0.00 0.01 0.02 0.04 0.00 0.01 0.02 0.02 0.04 0.03 0.03 0.04 0.01 0.02
0.00 0.00 0.00 0.00 0.00 0.00 0.00 0.00 0.00 0.00 0.00 0.00 0.01 0.05 0.16 0.25 0.14 0.03 0.04 0.02 0.02 0.05 0.10 0.05 0.03 0.05 0.04 0.00 0.00 0.00 0.00 0.00 0.00 0.00 0.00 0.02 0.09 0.02 0.01 0.01 0.03 0.01 0.01
0.00 0.00 0.00 0.00 0.00 0.00 0.00 0.00 0.00 0.00 0.00 0.00 0.00 0.00 0.10 0.21 0.11 0.05 0.05 0.08 0.05 0.16 0.75 0.12 0.11 0.05 0.01 0.02 0.00 0.00 0.00 0.00 0.00 0.00 0.00 0.03 0.07 0.17 0.04 0.01 0.03 0.00 0.01
0.00 0.00 0.00 0.00 0.00 0.00 0.00 0.00 0.00 0.00 0.00 0.00 0.00 0.00 0.01 0.10 0.17 0.21 0.20 0.11 0.07 0.08 0.22 0.15 0.09 0.23 0.01 0.00 0.00 0.00 0.00 0.00 0.00 0.00 0.00 0.03 0.05 0.10 0.11 0.02 0.01 0.03 0.02
0.00 0.00 0.00 0.00 0.00 0.00 0.00 0.00 0.00 0.00 0.00 0.00 0.00 0.00 0.00 0.02 0.09 0.12 0.15 0.15 0.10 0.15 0.09 0.09 0.08 0.25 0.02 0.00 0.00 0.00 0.00 0.00 0.00 0.00 0.00 0.02 0.03 0.05 0.13 0.22 0.11 0.05 0.07
0.00 0.00 0.00 0.00 0.00 0.00 0.00 0.00 0.00 0.00 0.00 0.00 0.00 0.00 0.00 0.00 0.04 0.11 0.22 0.15 0.13 0.19 0.09 0.08 0.05 0.04 0.00 0.00 0.00 0.00 0.00 0.00 0.00 0.00 0.00 0.00 0.00 0.00 0.04 0.14 0.27 0.23 0.22
0.00 0.00 0.00 0.00 0.00 0.00 0.00 0.00 0.00 0.00 0.00 0.00 0.00 0.00 0.00 0.00 0.01 0.07 0.26 0.26 0.10 0.18 0.10 0.07 0.10 0.04 0.00 0.00 0.00 0.00 0.00 0.00 0.00 0.00 0.00 0.00 0.00 0.00 0.00 0.06 0.11 0.19 0.22
0.00 0.00 0.00 0.00 0.00 0.00 0.00 0.00 0.00 0.00 0.00 0.00 0.00 0.00 0.00 0.00 0.00 0.02 0.24 0.36 0.16 0.15 0.14 0.14 0.07 0.00 0.00 0.00 0.00 0.00 0.00 0.00 0.00 0.00 0.00 0.00 0.00 0.00 0.00 0.00 0.03 0.04 0.05
0.00 0.00 0.00 0.00 0.01 0.01 0.00 0.00 0.00 0.00 0.00 0.00 0.00 0.00 0.00 0.00 0.00 0.05 0.19 0.34 0.14 0.14 0.13 0.12 0.04 0.00 0.00 0.00 0.00 0.00 0.00 0.00 0.00 0.00 0.00 0.00 0.00 0.00 0.00 0.00 0.00 0.00 0.01
0.00 0.00 0.00 0.00 0.00 0.00 0.00 0.00 0.00 0.00 0.00 0.00 0.00 0.00 0.00 0.00 0.01 0.10 0.27 0.19 0.14 0.15 0.19 0.09 0.07 0.04 0.00 0.00 0.00 0.00 0.00 0.00 0.00 0.00 0.00 0.00 0.00 0.00 0.00 0.00 0.00 0.00 0.00
0.00 0.00 0.00 0.00 0.00 0.00 0.00 0.00 0.00 0.00 0.00 0.00 0.00 0.00 0.00 0.00 0.00 0.09 0.19 0.12 0.17 0.19 0.31 0.18 0.04 0.02 0.01 0.00 0.00 0.00 0.00 0.00 0.00 0.00 0.00 0.00 0.00 0.00 0.00 0.00 0.00 0.00 0.00
0.00 0.00 0.00 0.00 0.00 0.00 0.00 0.00 0.00 0.00 0.00 0.00 0.00 0.00 0.00 0.00 0.00 0.02 0.07 0.11 0.14 0.09 0.23 0.18 0.02 0.01 0.00 0.00 0.00 0.00 0.00 0.01 0.00 0.00 0.00 0.00 0.00 0.00 0.00 0.00 0.00 0.00 0.00
0.00 0.00 0.00 0.00 0.00 0.00 0.00 0.00 0.00 0.00 0.00 0.00 0.00 0.00 0.00 0.00 0.00 0.00 0.02 0.14 0.10 0.09 0.15 0.12 0.05 0.00 0.00 0.00 0.00 0.00 0.00 0.00 0.00 0.00 0.00 0.00 0.00 0.00 0.00 0.00 0.00 0.00 0.00
0.00 0.00 0.00 0.00 0.00 0.00 0.00 0.00 0.00 0.00 0.00 0.00 0.00 0.00 0.00 0.00 0.00 0.00 0.01 0.03 0.05 0.01 0.04 0.07 0.06 0.02 0.00 0.00 0.00 0.00 0.00 0.00 0.00 0.00 0.00 0.00 0.00 0.00 0.00 0.00 0.00 0.00 0.00

GFSSE_prec_precacc24_048.txt.gz
Total_Precipitation_Accumulation
0.06 0.30 0.31 0.15 0.04 0.02 0.02 0.00 0.01 0.02 0.03 0.01 0.01 0.01 0.01 0.00 0.02 0.04 0.04 0.04 0.02 0.04 0.02 0.01 0.00 0.00 0.00 0.00 0.00 0.00 0.00 0.03 0.09 0.07 0.07 0.06 0.06 0.07 0.03 0.07 0.13 0.04 0.12
0.29 0.14 0.20 0.15 0.06 0.03 0.03 0.02 0.02 0.01 0.02 0.01 0.01 0.02 0.03 0.06 0.09 0.05 0.04 0.04 0.05 0.06 0.03 0.02 0.01 0.00 0.00 0.01 0.01 0.01 0.00 0.01 0.04 0.07 0.16 0.07 0.12 0.17 0.13 0.17 0.32 0.05 0.09
0.18 0.06 0.05 0.12 0.05 0.05 0.06 0.04 0.03 0.02 0.02 0.02 0.05 0.10 0.07 0.08 0.10 0.14 0.06 0.06 0.05 0.07 0.05 0.05 0.03 0.01 0.04 0.04 0.10 0.08 0.06 0.10 0.12 0.19 0.31 0.13 0.06 0.29 0.29 0.35 0.24 0.17 0.16
0.01 0.03 0.01 0.09 0.07 0.07 0.08 0.04 0.05 0.02 0.06 0.11 0.13 0.11 0.08 0.17 0.14 0.13 0.06 0.07 0.08 0.10 0.13 0.17 0.12 0.04 0.03 0.09 0.16 0.25 0.16 0.04 0.10 0.24 0.18 0.05 0.09 0.33 0.15 0.17 0.17 0.22 0.06
0.01 0.02 0.01 0.04 0.07 0.06 0.06 0.02 0.04 0.02 0.03 0.06 0.09 0.09 0.12 0.14 0.14 0.10 0.08 0.02 0.01 0.04 0.03 0.02 0.01 0.01 0.07 0.22 0.17 0.14 0.21 0.08 0.03 0.15 0.14 0.17 0.14 0.11 0.13 0.14 0.17 0.08 0.10
0.02 0.00 0.01 0.03 0.03 0.06 0.07 0.04 0.03 0.04 0.05 0.07 0.06 0.06 0.14 0.12 0.11 0.02 0.01 0.00 0.00 0.01 0.00 0.00 0.00 0.00 0.01 0.11 0.18 0.20 0.19 0.21 0.19 0.19 0.07 0.10 0.16 0.13 0.12 0.10 0.09 0.04 0.06
0.01 0.01 0.01 0.11 0.07 0.06 0.04 0.01 0.03 0.04 0.07 0.06 0.04 0.07 0.08 0.06 0.05 0.01 0.00 0.01 0.00 0.00 0.00 0.01 0.00 0.02 0.08 0.20 0.19 0.26 0.26 0.14 0.09 0.16 0.09 0.18 0.09 0.15 0.05 0.04 0.04 0.04 0.11
0.01 0.00 0.02 0.05 0.04 0.07 0.02 0.04 0.03 0.03 0.02 0.04 0.08 0.06 0.04 0.02 0.02 0.02 0.00 0.00 0.00 0.00 0.00 0.02 0.08 0.07 0.04 0.19 0.20 0.23 0.27 0.08 0.06 0.02 0.11 0.18 0.03 0.03 0.06 0.05 0.03 0.06 0.05
0.01 0.00 0.02 0.01 0.05 0.06 0.06 0.04 0.02 0.02 0.02 0.05 0.06 0.05 0.01 0.01 0.00 0.00 0.01 0.00 0.00 0.00 0.00 0.02 0.03 0.03 0.07 0.09 0.16 0.08 0.22 0.17 0.14 0.01 0.01 0.00 0.05 0.09 0.06 0.06 0.08 0.04 0.07
0.00 0.01 0.00 0.01 0.01 0.03 0.04 0.04 0.02 0.03 0.05 0.06 0.01 0.01 0.03 0.03 0.05 0.03 0.03 0.02 0.00 0.00 0.00 0.02 0.03 0.03 0.06 0.12 0.16 0.05 0.15 0.17 0.20 0.06 0.00 0.02 0.07 0.08 0.04 0.06 0.06 0.03 0.03
0.01 0.00 0.00 0.02 0.01 0.08 0.02 0.04 0.07 0.05 0.02 0.01 0.01 0.07 0.29 0.21 0.24 0.23 0.07 0.03 0.01 0.02 0.05 0.05 0.01 0.03 0.02 0.04 0.09 0.16 0.07 0.13 0.16 0.03 0.01 0.02 0.11 0.05 0.04 0.06 0.03 0.03 0.03
0.00 0.01 0.00 0.00 0.00 0.06 0.02 0.03 0.05 0.02 0.00 0.00 0.01 0.19 0.79 0.16 0.09 0.12 0.07 0.11 0.05 0.05 0.06 0.07 0.05 0.03 0.08 0.03 0.02 0.09 0.06 0.05 0.08 0.01 0.01 0.03 0.04 0.02 0.03 0.02 0.02 0.02 0.04
0.00 0.00 0.00 0.00 0.00 0.01 0.02 0.01 0.01 0.00 0.00 0.00 0.03 0.26 0.81 0.23 0.10 0.12 0.02 0.06 0.01 0.02 0.02 0.06 0.05 0.00 0.00 0.00 0.00 0.00 0.01 0.02 0.04 0.00 0.01 0.02 0.02 0.02 0.01 0.02 0.02 0.01 0.02
0.00 0.00 0.00 0.00 0.00 0.00 0.00 0.00 0.00 0.00 0.00 0.00 0.01 0.05 0.16 0.25 0.14 0.03 0.04 0.02 0.02 0.05 0.10 0.05 0.02 0.02 0.02 0.00 0.00 0.00 0.00 0.00 0.00 0.00 0.00 0.02 0.09 0.03 0.01 0.01 0.02 0.01 0.00
0.00 0.00 0.00 0.00 0.00 0.00 0.00 0.00 0.00 0.00 0.00 0.00 0.00 0.00 0.10 0.21 0.10 0.06 0.07 0.08 0.05 0.16 0.75 0.08 0.03 0.01 0.00 0.02 0.00 0.00 0.00 0.00 0.00 0.00 0.00 0.03 0.07 0.17 0.04 0.00 0.04 0.00 0.00
0.00 0.00 0.00 0.00 0.00 0.00 0.00 0.00 0.00 0.00 0.00 0.00 0.00 0.00 0.01 0.10 0.23 0.27 0.25 0.16 0.09 0.07 0.18 0.06 0.02 0.20 0.01 0.00 0.00 0.00 0.00 0.00 0.00 0.00 0.00 0.03 0.05 0.10 0.11 0.02 0.01 0.01 0.00
0.00 0.00 0.00 0.00 0.00 0.00 0.00 0.00 0.00 0.00 0.00 0.00 0.00 0.00 0.00 0.02 0.17 0.20 0.21 0.21 0.13 0.06 0.01 0.04 0.04 0.24 0.02 0.00 0.00 0.00 0.00 0.00 0.00 0.00 0.00 0.02 0.03 0.05 0.14 0.22 0.11 0.03 0.04
0.00 0.00 0.00 0.00 0.00 0.00 0.00 0.00 0.00 0.00 0.00 0.00 0.00 0.00 0.00 0.00 0.10 0.17 0.20 0.13 0.13 0.09 0.05 0.06 0.02 0.01 0.00 0.00 0.00 0.00 0.00 0.00 0.00 0.00 0.00 0.00 0.00 0.00 0.05 0.14 0.27 0.21 0.21
0.00 0.00 0.00 0.00 0.00 0.00 0.00 0.00 0.00 0.00 0.00 0.00 0.00 0.00 0.00 0.00 0.01 0.07 0.18 0.23 0.13 0.20 0.08 0.03 0.04 0.01 0.00 0.00 0.00 0.00 0.00 0.00 0.00 0.00 0.00 0.00 0.00 0.00 0.00 0.06 0.11 0.19 0.21
0.00 0.00 0.00 0.00 0.00 0.00 0.00 0.00 0.00 0.00 0.00 0.00 0.00 0.00 0.00 0.00 0.00 0.03 0.25 0.35 0.20 0.17 0.16 0.07 0.02 0.00 0.00 0.00 0.00 0.00 0.00 0.00 0.00 0.00 0.00 0.00 0.00 0.00 0.00 0.00 0.03 0.04 0.05
0.00 0.00 0.00 0.00 0.01 0.01 0.00 0.00 0.00 0.00 0.00 0.00 0.00 0.00 0.00 0.00 0.00 0.06 0.20 0.30 0.17 0.13 0.11 0.06 0.00 0.00 0.00 0.00 0.00 0.00 0.00 0.00 0.00 0.00 0.00 0.00 0.00 0.00 0.00 0.00 0.00 0.00 0.01
0.00 0.00 0.00 0.00 0.00 0.00 0.00 0.00 0.00 0.00 0.00 0.00 0.00 0.00 0.00 0.00 0.01 0.11 0.24 0.13 0.16 0.18 0.19 0.11 0.05 0.03 0.00 0.00 0.00 0.00 0.00 0.00 0.00 0.00 0.00 0.00 0.00 0.00 0.00 0.00 0.00 0.00 0.00
0.00 0.00 0.00 0.00 0.00 0.00 0.00 0.00 0.00 0.00 0.00 0.00 0.00 0.00 0.00 0.00 0.00 0.10 0.18 0.10 0.19 0.23 0.28 0.16 0.01 0.01 0.01 0.00 0.00 0.00 0.00 0.00 0.00 0.00 0.00 0.00 0.00 0.00 0.00 0.00 0.00 0.00 0.00
0.00 0.00 0.00 0.00 0.00 0.00 0.00 0.00 0.00 0.00 0.00 0.00 0.00 0.00 0.00 0.00 0.00 0.02 0.13 0.16 0.17 0.18 0.24 0.18 0.01 0.01 0.00 0.00 0.00 0.00 0.00 0.01 0.00 0.00 0.00 0.00 0.00 0.00 0.00 0.00 0.00 0.00 0.00
0.00 0.00 0.00 0.00 0.00 0.00 0.00 0.00 0.00 0.00 0.00 0.00 0.00 0.00 0.00 0.00 0.00 0.00 0.05 0.15 0.11 0.11 0.16 0.18 0.10 0.00 0.00 0.00 0.00 0.00 0.00 0.00 0.00 0.00 0.00 0.00 0.00 0.00 0.00 0.00 0.00 0.00 0.00
0.00 0.00 0.00 0.00 0.00 0.00 0.00 0.00 0.00 0.00 0.00 0.00 0.00 0.00 0.00 0.00 0.00 0.00 0.00 0.02 0.05 0.04 0.06 0.12 0.13 0.04 0.00 0.00 0.00 0.00 0.00 0.00 0.00 0.00 0.00 0.00 0.00 0.00 0.00 0.00 0.00 0.00 0.00